Torna al catalogo

CZ-6A DEB

AttivoPO
NORAD 60674·DEBRIS·🇨🇳 China

Lanciato Aug 6, 2024 da Taiyuan Satellite Launch Center

Loading…

Prossimi Passaggi (prossime 24 ore)

TLE

AggiornatoSource: Space-Track

Epoca: Sep 14, 2026, 10:36 UTC

1 60674U 24140CB  26257.44177902  .00000480  00000-0  83084-4 0  9999
2 60674  89.0032 259.3842 0142813 289.2189  69.3617 14.60256864111779

Traccia CZ-6A DEB in tempo reale con AllMySat

Download on the App Store